Counter,date_time,lat,lon,DepthCm,BattVolts,DepthVolts
100001,2021-12-12T11:13:28,58.78181378,-93.80157927,9.32,13.86,0.608
100002,2021-12-12T11:15:14,58.78185379,-93.80157426,6.279,13.83,0.405
100004,2021-12-12T11:20:31,58.78207218,-93.80117415,6.225,13.74,0.402
100005,2021-12-12T11:22:09,58.78209385,-93.80122083,5.628,13.72,0.362
100006,2021-12-12T11:22:35,58.78212386,-93.80127585,4.977,13.71,0.318
100007,2021-12-12T11:22:44,58.7821372,-93.80132086,4.543,13.71,0.29
100008,2021-12-12T11:23:01,58.78215387,-93.80138088,6.497,13.7,0.42
100009,2021-12-12T11:23:42,58.78217554,-93.80141755,8.78,13.69,0.572
100010,2021-12-12T11:23:54,58.78219222,-93.8014659,7.257,13.69,0.47
100011,2021-12-12T11:24:01,58.78220722,-93.80150091,7.908,13.69,0.514
100012,2021-12-12T11:24:33,58.78223389,-93.80154926,4.597,13.68,0.293
100013,2021-12-12T11:24:42,58.78225223,-93.80158593,4.977,13.68,0.318
100014,2021-12-12T11:24:57,58.78226724,-93.80162094,8.72,13.68,0.568
100015,2021-12-12T11:26:07,58.78228391,-93.80172264,7.257,13.66,0.47
100016,2021-12-12T11:26:14,58.78228557,-93.80176932,5.574,13.66,0.358
100017,2021-12-12T11:26:21,58.78228724,-93.801821,5.846,13.66,0.376
100018,2021-12-12T11:26:28,58.78229558,-93.80187768,7.691,13.66,0.499
100019,2021-12-12T11:26:36,58.78230725,-93.80193603,7.691,13.65,0.499
100020,2021-12-12T11:26:48,58.78232225,-93.80197604,6.932,13.66,0.449
100021,2021-12-12T11:26:55,58.78234059,-93.80202272,7.149,13.66,0.463
100022,2021-12-12T11:27:57,58.78236893,-93.80207274,7.42,13.64,0.481
100023,2021-12-12T11:28:43,58.7823906,-93.80212275,5.52,13.63,0.355
100024,2021-12-12T11:29:08,58.78240894,-93.8021811,5.738,13.62,0.369
100025,2021-12-12T11:29:26,58.78242395,-93.80222111,5.195,13.62,0.333
100026,2021-12-12T11:29:40,58.78243895,-93.80226612,6.172,13.62,0.398
100027,2021-12-12T11:30:10,58.78245395,-93.8023178,6.281,13.62,0.405
100028,2021-12-12T11:30:18,58.78246729,-93.80237949,6.063,13.61,0.391
100029,2021-12-12T11:30:33,58.78247396,-93.80243784,4.869,13.6,0.311
100030,2021-12-12T11:30:47,58.7824923,-93.80246618,6.389,13.6,0.413
100031,2021-12-12T11:31:39,58.78251731,-93.80250119,7.638,13.59,0.496
100032,2021-12-12T11:31:48,58.78253231,-93.80254954,4.761,13.59,0.304
100033,2021-12-12T11:31:57,58.78255232,-93.80260288,6.064,13.59,0.391
100034,2021-12-12T11:32:07,58.78256899,-93.80264623,5.086,13.59,0.326
100035,2021-12-12T11:32:16,58.78257732,-93.80268457,6.824,13.58,0.442
100036,2021-12-12T11:33:58,58.78260066,-93.80274292,8.78,13.57,0.572
100037,2021-12-12T11:34:05,58.78261733,-93.80279294,5.304,13.57,0.34
100038,2021-12-12T11:34:45,58.78263734,-93.80285129,7.204,13.55,0.467
100039,2021-12-12T11:35:02,58.78265401,-93.8028863,4.435,13.55,0.282
100040,2021-12-12T11:35:22,58.78267402,-93.80293131,5.304,13.55,0.34
100041,2021-12-12T11:35:36,58.78268235,-93.80297132,9.54,13.54,0.623
100042,2021-12-12T11:35:59,58.78269736,-93.80302133,7.693,13.54,0.5
100043,2021-12-12T11:36:16,58.78270569,-93.80306134,7.964,13.54,0.518
100044,2021-12-12T11:36:34,58.78271903,-93.80309469,9.65,13.53,0.63
100045,2021-12-12T11:36:43,58.78272736,-93.80313636,5.575,13.53,0.358
100046,2021-12-12T11:37:07,58.7827507,-93.80318138,7.53,13.53,0.489
100047,2021-12-12T11:37:14,58.78276571,-93.80320805,6.064,13.53,0.391
100048,2021-12-12T11:37:29,58.78278238,-93.80325973,5.141,13.52,0.329
100049,2021-12-12T11:37:43,58.78279905,-93.80329641,7.693,13.52,0.5
100050,2021-12-12T11:37:55,58.78281405,-93.80334142,9.76,13.52,0.637
100051,2021-12-12T11:38:10,58.78282906,-93.8033881,13.45,13.52,0.883
100052,2021-12-12T11:38:20,58.7828424,-93.80342478,8.72,13.51,0.568
100053,2021-12-12T11:38:32,58.78285573,-93.80347146,9.59,13.51,0.626
100054,2021-12-12T11:38:43,58.78286907,-93.80350813,7.584,13.51,0.492
100055,2021-12-12T11:39:00,58.78288741,-93.80354648,5.304,13.51,0.34
100056,2021-12-12T11:39:14,58.78290408,-93.80358816,10.3,13.51,0.673
100057,2021-12-12T11:39:27,58.78291575,-93.80362984,6.281,13.5,0.405
100058,2021-12-12T11:39:39,58.78293242,-93.80367818,6.932,13.5,0.449
100059,2021-12-12T11:39:51,58.78295076,-93.80371319,4.924,13.5,0.315
100060,2021-12-12T11:40:04,58.7829691,-93.80373987,4.272,13.49,0.271
100061,2021-12-12T11:43:44,58.78300411,-93.80376821,6.281,13.46,0.405
100062,2021-12-12T11:47:40,58.78303912,-93.8038699,8.24,13.42,0.536
100063,2021-12-12T11:48:12,58.78303745,-93.8039766,4.869,13.41,0.311
100064,2021-12-12T11:48:24,58.7829841,-93.80402494,7.258,13.41,0.471
100065,2021-12-12T11:48:39,58.78293576,-93.80396493,10.46,13.4,0.684
100066,2021-12-12T11:49:01,58.78293742,-93.80382989,6.227,13.4,0.402
100067,2021-12-12T11:49:15,58.78293742,-93.80371319,6.064,13.4,0.391
100068,2021-12-12T11:49:27,58.78290408,-93.80362984,6.281,13.4,0.405
100069,2021-12-12T11:49:50,58.7828574,-93.80352147,3.675,13.39,0.232
100070,2021-12-12T11:50:49,58.78284906,-93.80351314,5.032,13.39,0.322
100071,2021-12-12T11:51:09,58.78284573,-93.80351147,6.281,13.37,0.405
100072,2021-12-12T11:51:30,58.7828474,-93.80350647,7.801,13.37,0.507
100073,2021-12-12T11:51:48,58.78284406,-93.80351147,9.1,13.37,0.594
100074,2021-12-12T11:52:05,58.7828424,-93.8035098,10.03,13.37,0.655
100075,2021-12-12T11:52:19,58.7828424,-93.80350813,8.67,13.36,0.565
100076,2021-12-12T11:52:33,58.7828424,-93.80350147,9.65,13.37,0.63
100077,2021-12-12T11:56:57,58.78284906,-93.80350313,6.39,13.33,0.413
100078,2021-12-12T11:57:25,58.7828474,-93.80350813,4.869,13.32,0.311
100079,2021-12-12T11:57:38,58.78284906,-93.8035098,4.978,13.32,0.319
100080,2021-12-12T11:57:50,58.78284406,-93.8035098,5.738,13.32,0.369
100081,2021-12-12T11:58:05,58.78284073,-93.80351147,6.498,13.32,0.42
100082,2021-12-12T11:58:13,58.78283906,-93.80350813,7.041,13.32,0.456
100083,2021-12-12T11:58:22,58.78283739,-93.80350813,6.118,13.31,0.395
100084,2021-12-12T11:58:34,58.78283573,-93.8035048,7.258,13.32,0.471
100085,2021-12-12T11:58:49,58.78283739,-93.80350813,5.575,13.31,0.358
100086,2021-12-12T11:58:56,58.78283573,-93.80350313,5.304,13.31,0.34
100087,2021-12-12T11:59:04,58.78283739,-93.80350313,6.281,13.31,0.405
100088,2021-12-12T11:59:10,58.78283573,-93.80349646,5.467,13.31,0.351
100089,2021-12-12T11:59:18,58.78283406,-93.80349313,4.869,13.31,0.311
100090,2021-12-12T11:59:24,58.78283239,-93.80349313,7.53,13.31,0.489
100091,2021-12-12T11:59:30,58.78283239,-93.80349146,6.498,13.3,0.42
100092,2021-12-12T11:59:41,58.78283073,-93.8034898,3.783,13.3,0.239
100093,2021-12-12T11:59:46,58.78282739,-93.80348646,6.444,13.3,0.416
100094,2021-12-12T11:59:53,58.78282406,-93.80348313,2.915,13.3,0.181
100095,2021-12-12T11:59:58,58.78282406,-93.80348313,3.566,13.3,0.224
100096,2021-12-12T12:00:03,58.78282406,-93.80347979,4.055,13.3,0.257
100097,2021-12-12T12:00:16,58.78282072,-93.80347479,4.109,13.3,0.261
100098,2021-12-12T12:00:26,58.78282239,-93.80347646,3.023,13.3,0.188
100099,2021-12-12T12:00:32,58.78282239,-93.80347646,3.023,13.3,0.188
100100,2021-12-12T12:00:40,58.78282072,-93.80347146,3.24,13.3,0.203
100101,2021-12-12T12:00:45,58.78281906,-93.80347313,4.761,13.3,0.304
100102,2021-12-12T12:00:51,58.78281739,-93.80347146,3.675,13.3,0.232
100103,2021-12-12T12:00:56,58.78281906,-93.80347313,5.304,13.29,0.34
100104,2021-12-12T12:01:03,58.78281572,-93.80346812,4.978,13.29,0.319
100105,2021-12-12T12:01:08,58.78281572,-93.80346812,3.023,13.29,0.188
100106,2021-12-12T12:01:14,58.78281739,-93.80346312,4.218,13.29,0.268
100107,2021-12-12T12:01:20,58.78281572,-93.80346312,7.693,13.29,0.5
100108,2021-12-12T12:01:25,58.78281572,-93.80345979,7.693,13.29,0.5
100109,2021-12-12T12:01:30,58.78281239,-93.80345479,9.05,13.29,0.59
100110,2021-12-12T12:01:36,58.78281072,-93.80345312,6.281,13.29,0.405
100111,2021-12-12T12:01:42,58.78280905,-93.80345312,8.34,13.29,0.543
100112,2021-12-12T12:01:52,58.78281072,-93.80345479,5.304,13.29,0.34
100113,2021-12-12T12:01:56,58.78281072,-93.80345312,5.847,13.29,0.376
100114,2021-12-12T12:02:01,58.78280905,-93.80344812,7.041,13.29,0.456
100115,2021-12-12T12:02:07,58.78280739,-93.80344312,6.444,13.28,0.416
100116,2021-12-12T12:02:14,58.78280739,-93.80344645,3.675,13.28,0.232
100117,2021-12-12T12:02:19,58.78280572,-93.80344478,7.258,13.29,0.471
100118,2021-12-12T12:02:29,58.78280572,-93.80344312,6.932,13.28,0.449
100119,2021-12-12T12:02:33,58.78280405,-93.80343978,5.684,13.28,0.366
100120,2021-12-12T12:02:38,58.78280405,-93.80343645,5.032,13.28,0.322
100121,2021-12-12T12:03:29,58.78278405,-93.80334642,3.783,13.28,0.239
100122,2021-12-12T12:03:40,58.78274737,-93.80323139,6.987,13.27,0.452
100123,2021-12-12T12:03:51,58.78271569,-93.8031447,9.21,13.28,0.601
100124,2021-12-12T12:04:02,58.78268569,-93.80305301,5.738,13.28,0.369
100125,2021-12-12T12:04:15,58.78266068,-93.80296798,5.847,13.27,0.376
100126,2021-12-12T12:04:30,58.78263067,-93.80287629,4.381,13.26,0.279
100127,2021-12-12T12:04:41,58.78259566,-93.8027846,7.855,13.26,0.51
100128,2021-12-12T12:04:52,58.78256899,-93.80268624,7.367,13.26,0.478
100129,2021-12-12T12:05:09,58.78253898,-93.80259955,6.498,13.26,0.42
100130,2021-12-12T12:05:32,58.7825073,-93.80250119,4.761,13.26,0.304
100131,2021-12-12T12:05:46,58.78246729,-93.8024095,6.39,13.26,0.413
100132,2021-12-12T12:05:57,58.78243228,-93.80230947,6.118,13.26,0.395
100133,2021-12-12T12:06:08,58.78239727,-93.80221111,4.001,13.25,0.253
100134,2021-12-12T12:06:20,58.78236226,-93.80211441,5.195,13.25,0.333
100135,2021-12-12T12:06:32,58.78233059,-93.80202439,3.892,13.25,0.246
100136,2021-12-12T12:07:07,58.78230558,-93.8019277,4.978,13.25,0.319
100137,2021-12-12T12:07:18,58.78228391,-93.80183267,5.521,13.24,0.355
100138,2021-12-12T12:07:28,58.78227057,-93.80173598,8.45,13.24,0.55
100139,2021-12-12T12:07:40,58.78225223,-93.80161594,11.49,13.24,0.753
100140,2021-12-12T12:07:51,58.78221055,-93.80154092,7.801,13.24,0.507
100141,2021-12-12T12:08:11,58.78216387,-93.8014459,6.932,13.24,0.449
100142,2021-12-12T12:10:37,58.78172375,-93.80158427,9.65,13.22,0.63
100143,2021-12-12T12:10:43,58.78169874,-93.80158927,5.847,13.22,0.376
100144,2021-12-12T12:10:49,58.7816704,-93.8015926,7.693,13.22,0.5
100145,2021-12-12T12:10:57,58.78165207,-93.8015976,9.27,13.22,0.604
100146,2021-12-12T12:11:08,58.78162706,-93.80160761,12.25,13.22,0.804
100147,2021-12-12T12:11:14,58.78160038,-93.80161094,6.498,13.22,0.42
100148,2021-12-12T12:11:22,58.78157204,-93.80162261,6.39,13.22,0.413
100149,2021-12-12T12:11:28,58.78154704,-93.80164595,6.064,13.22,0.391
100150,2021-12-12T12:11:34,58.78152203,-93.80166429,8.89,13.22,0.579
100151,2021-12-12T12:11:40,58.78150036,-93.80168263,9.0,13.22,0.586
100152,2021-12-12T12:11:47,58.78147702,-93.80171097,5.792,13.22,0.373
100153,2021-12-12T12:11:53,58.78145201,-93.80172931,8.56,13.21,0.557
100154,2021-12-12T12:12:00,58.781427,-93.80175431,3.783,13.21,0.239
100155,2021-12-12T12:12:06,58.78140366,-93.80177765,9.38,13.22,0.612
100156,2021-12-12T12:12:13,58.78138366,-93.80179433,6.824,13.21,0.442
100157,2021-12-12T12:12:19,58.78136365,-93.801821,5.195,13.21,0.333
100158,2021-12-12T12:12:25,58.78134198,-93.80184267,6.932,13.21,0.449
100159,2021-12-12T12:12:32,58.78131531,-93.80186434,7.584,13.2,0.492
100160,2021-12-12T12:12:40,58.78129197,-93.80189602,8.29,13.2,0.539
100161,2021-12-12T12:12:47,58.78126696,-93.80192436,5.521,13.21,0.355
100162,2021-12-12T12:12:54,58.78124362,-93.8019427,6.932,13.21,0.449
100163,2021-12-12T12:13:01,58.78122361,-93.80196771,6.172,13.2,0.398
100164,2021-12-12T12:13:08,58.78120027,-93.80198938,7.801,13.2,0.507
100165,2021-12-12T12:13:15,58.7811786,-93.80201272,7.312,13.2,0.474
100166,2021-12-12T12:13:22,58.78115359,-93.80203773,6.824,13.2,0.442
100167,2021-12-12T12:13:29,58.78112692,-93.8020594,5.467,13.2,0.351
100168,2021-12-12T12:13:35,58.78110358,-93.80208274,3.675,13.2,0.232
100169,2021-12-12T12:13:42,58.7810719,-93.80210775,7.475,13.2,0.485
100170,2021-12-12T12:13:48,58.7810469,-93.80213942,9.97,13.2,0.652
100171,2021-12-12T12:13:57,58.78102189,-93.8021711,4.924,13.2,0.315
100172,2021-12-12T12:14:03,58.78099855,-93.80218777,3.675,13.2,0.232
100173,2021-12-12T12:14:10,58.78097688,-93.80221278,8.24,13.2,0.536
100174,2021-12-12T12:14:16,58.78095354,-93.80223778,5.847,13.2,0.376
100175,2021-12-12T12:14:29,58.78092853,-93.80226112,3.458,13.2,0.217
100176,2021-12-12T12:14:38,58.78090519,-93.80228613,4.109,13.2,0.261
100177,2021-12-12T12:14:44,58.78088352,-93.80230447,2.426,13.19,0.148
100178,2021-12-12T12:14:50,58.78086018,-93.80232447,4.544,13.19,0.29
100179,2021-12-12T12:14:56,58.78083851,-93.80235115,13.66,13.19,0.898
100180,2021-12-12T12:15:03,58.7808185,-93.80236782,8.56,13.19,0.557
100181,2021-12-12T12:15:10,58.78080183,-93.80238116,4.001,13.19,0.253
100182,2021-12-12T12:15:16,58.78077849,-93.80239283,7.584,13.19,0.492
100183,2021-12-12T12:15:23,58.78075848,-93.8024145,7.801,13.19,0.507
100184,2021-12-12T12:15:31,58.78073681,-93.80243617,5.521,13.19,0.355
100185,2021-12-12T12:15:38,58.78071347,-93.80245451,6.335,13.19,0.409
100186,2021-12-12T12:15:46,58.7806868,-93.80247285,4.001,13.19,0.253
100187,2021-12-12T12:15:53,58.78066012,-93.80249285,3.946,13.19,0.25
100188,2021-12-12T12:16:01,58.78064345,-93.80251286,4.435,13.19,0.282
100189,2021-12-12T12:16:08,58.78061678,-93.80252953,14.26,13.19,0.937
100190,2021-12-12T12:16:16,58.78059844,-93.8025512,16.27,13.18,1.071
100191,2021-12-12T12:16:27,58.7805801,-93.80256954,8.24,13.18,0.536
100192,2021-12-12T12:16:34,58.78055343,-93.80259955,2.698,13.18,0.167
100193,2021-12-12T12:16:41,58.78053009,-93.80261955,7.15,13.18,0.463
100194,2021-12-12T12:16:46,58.78051508,-93.80263122,7.041,13.18,0.456
100195,2021-12-12T12:17:09,58.78056843,-93.8026579,6.715,13.18,0.434
100196,2021-12-12T12:18:37,58.78062678,-93.80262289,20.89,13.17,1.379
100197,2021-12-12T12:18:52,58.78067679,-93.80256621,4.001,13.17,0.253
100198,2021-12-12T12:19:04,58.78073014,-93.8025312,12.9,13.16,0.847
100199,2021-12-12T12:19:18,58.78078849,-93.80248285,3.783,13.16,0.239
100200,2021-12-12T12:19:28,58.78083517,-93.80243284,2.806,13.16,0.174
100201,2021-12-12T12:19:40,58.78087685,-93.80239449,5.847,13.16,0.376
100202,2021-12-12T12:19:51,58.78092853,-93.80235615,5.575,13.16,0.358
100203,2021-12-12T12:20:07,58.78097688,-93.80231114,3.675,13.15,0.232
100204,2021-12-12T12:20:18,58.78103689,-93.80224945,8.24,13.16,0.536
100205,2021-12-12T12:20:29,58.78109024,-93.80217943,9.92,13.15,0.648
100206,2021-12-12T12:20:46,58.78114192,-93.80212442,2.589,13.15,0.159
100207,2021-12-12T12:20:59,58.78119694,-93.80207607,5.086,13.15,0.326
100208,2021-12-12T12:21:11,58.78125696,-93.80201439,4.326,13.15,0.275
100209,2021-12-12T12:21:24,58.78132364,-93.80196271,5.358,13.15,0.344
100210,2021-12-12T12:21:35,58.78137866,-93.80189102,4.109,13.14,0.261
100211,2021-12-12T12:21:47,58.78145201,-93.80182267,6.824,13.15,0.442
100212,2021-12-12T12:22:00,58.78152703,-93.80174598,12.25,13.14,0.804
100213,2021-12-12T12:53:10,58.78028669,-93.77807274,29.58,12.96,1.959
100214,2021-12-12T12:55:40,58.78023334,-93.777821,4.87,12.96,0.311
100215,2021-12-12T12:56:07,58.78023334,-93.77782434,6.065,12.95,0.391
100216,2021-12-12T13:01:03,58.7800833,-93.7775626,1.286,12.92,0.072
100217,2021-12-12T13:05:12,58.78008663,-93.7775726,0.96,12.9,0.051
100218,2021-12-12T13:05:18,58.7801083,-93.7775776,0.526,12.9,0.022
100219,2021-12-12T13:05:26,58.78013164,-93.7775776,1.286,12.9,0.072
100220,2021-12-12T13:05:36,58.78014998,-93.77757927,0.743,12.9,0.036
100221,2021-12-12T13:05:43,58.78016499,-93.77757093,1.069,12.9,0.058
100222,2021-12-12T13:05:49,58.78017999,-93.7775726,1.992,12.9,0.119
100223,2021-12-12T13:05:56,58.78019666,-93.77756593,2.644,12.9,0.163
100224,2021-12-12T13:06:02,58.78021333,-93.77756426,2.264,12.89,0.138
100225,2021-12-12T13:06:08,58.78022834,-93.77756593,2.807,12.9,0.174
100226,2021-12-12T13:06:13,58.78024334,-93.77756093,1.775,12.9,0.105
100227,2021-12-12T13:06:23,58.78026335,-93.77755593,1.612,12.89,0.094
100228,2021-12-12T13:07:34,58.78028335,-93.77754593,7.694,12.89,0.5
100229,2021-12-12T13:07:45,58.78030169,-93.77754593,7.314,12.89,0.474
100230,2021-12-12T13:07:56,58.78031503,-93.77754759,5.196,12.89,0.333
100231,2021-12-12T13:08:06,58.7803317,-93.77754426,6.608,12.89,0.427
100232,2021-12-12T13:09:28,58.78035004,-93.77753592,11.22,12.88,0.735
100233,2021-12-12T13:09:35,58.78036004,-93.77753259,13.78,12.88,0.905
100234,2021-12-12T13:09:49,58.78037504,-93.77753259,5.793,12.88,0.373
100235,2021-12-12T13:09:56,58.78038838,-93.77752925,3.024,12.88,0.188
100236,2021-12-12T13:10:02,58.78040339,-93.77752592,0.2,12.88,0.0
100237,2021-12-12T13:10:10,58.78042339,-93.77752259,0.2,12.88,0.0
100238,2021-12-12T13:10:18,58.78043839,-93.77752259,12.91,12.88,0.847
100239,2021-12-12T13:10:33,58.78045006,-93.77751758,10.84,12.88,0.71
100240,2021-12-12T13:10:52,58.78046674,-93.77750925,25.51,12.88,1.687
100241,2021-12-12T13:11:16,58.78048174,-93.77749925,21.6,12.87,1.426
100242,2021-12-12T13:11:33,58.78050508,-93.77748924,21.11,12.87,1.394
100243,2021-12-12T13:11:54,58.78051842,-93.77748424,20.18,12.87,1.332
100244,2021-12-12T13:12:02,58.78053009,-93.77748424,14.59,12.87,0.959
100245,2021-12-12T13:12:09,58.78054509,-93.77747757,7.151,12.87,0.463
100246,2021-12-12T13:12:14,58.78055843,-93.77747591,3.024,12.87,0.188
100247,2021-12-12T13:12:18,58.78057343,-93.77747424,7.096,12.87,0.46
100248,2021-12-12T13:12:24,58.78059177,-93.77746757,7.64,12.87,0.496
100249,2021-12-12T13:12:33,58.78060678,-93.77746924,4.816,12.87,0.308
100250,2021-12-12T13:12:47,58.78062678,-93.77746257,1.72,12.87,0.101
100251,2021-12-12T13:12:54,58.78064679,-93.7774609,0.96,12.87,0.051
100252,2021-12-12T13:13:02,58.78066846,-93.77745423,1.775,12.87,0.105
100253,2021-12-12T13:13:13,58.78068846,-93.77745423,5.304,12.87,0.34
100254,2021-12-12T13:13:21,58.78070013,-93.77745257,3.73,12.87,0.235
100255,2021-12-12T13:13:43,58.78072014,-93.77744923,3.404,12.87,0.214
100256,2021-12-12T13:13:47,58.78073681,-93.77744423,4.381,12.86,0.279
100257,2021-12-12T13:13:52,58.78075515,-93.7774459,4.979,12.86,0.319
100258,2021-12-12T13:13:57,58.78077516,-93.77743923,10.84,12.86,0.71
100259,2021-12-12T13:14:03,58.78079183,-93.77743256,14.75,12.86,0.97
100260,2021-12-12T13:14:09,58.78080516,-93.77742756,22.25,12.86,1.47
100261,2021-12-12T13:14:28,58.7808185,-93.77741756,22.63,12.86,1.495
100262,2021-12-12T13:14:35,58.78083517,-93.77741922,19.21,12.86,1.267
100263,2021-12-12T13:14:44,58.78085518,-93.77742089,8.67,12.86,0.565
100264,2021-12-12T13:14:54,58.78087685,-93.77741922,4.218,12.86,0.268
100265,2021-12-12T13:15:00,58.78089185,-93.77741589,3.024,12.86,0.188
100266,2021-12-12T13:15:06,58.78091353,-93.77741422,1.449,12.86,0.083
100267,2021-12-12T13:15:12,58.7809302,-93.77741422,2.915,12.86,0.181
100268,2021-12-12T13:15:17,58.78094687,-93.77741089,1.015,12.86,0.054
100269,2021-12-12T13:15:23,58.78096854,-93.77741089,1.286,12.86,0.072
100270,2021-12-12T13:15:32,58.78098521,-93.77740088,0.417,12.86,0.014
100271,2021-12-12T13:15:49,58.78100188,-93.77739588,0.906,12.86,0.047
100272,2021-12-12T13:15:56,58.78102189,-93.77739588,2.644,12.86,0.163
100273,2021-12-12T13:16:09,58.7810469,-93.77739255,2.589,12.86,0.159
100274,2021-12-12T13:16:19,58.7810669,-93.77739255,1.395,12.85,0.08
100275,2021-12-12T13:16:25,58.78107857,-93.77738421,0.526,12.85,0.022
100276,2021-12-12T13:16:31,58.78109691,-93.77738088,1.72,12.85,0.101
100277,2021-12-12T13:16:49,58.78111025,-93.77737921,0.526,12.85,0.022
100279,2021-12-12T13:17:11,58.78114026,-93.77736087,0.634,12.85,0.029
100280,2021-12-12T13:17:28,58.78115359,-93.77736087,0.417,12.85,0.014
100281,2021-12-12T13:17:41,58.78117193,-93.77735921,0.743,12.84,0.036
100282,2021-12-12T13:17:48,58.78119027,-93.77735587,0.96,12.84,0.051
100283,2021-12-12T13:17:53,58.78120694,-93.77735587,1.286,12.84,0.072
100284,2021-12-12T13:17:58,58.78122195,-93.77735754,1.069,12.84,0.058
100285,2021-12-12T13:18:03,58.78123362,-93.77735921,0.96,12.85,0.051
100286,2021-12-12T13:18:11,58.78124529,-93.77736254,1.829,12.84,0.109
100287,2021-12-12T13:18:18,58.78126362,-93.77735754,0.2,12.85,0.0
100288,2021-12-12T13:18:24,58.7812853,-93.77735587,0.2,12.84,0.0
100289,2021-12-12T13:18:34,58.78129863,-93.77735587,0.743,12.84,0.036
100290,2021-12-12T13:18:38,58.7813103,-93.77735754,2.372,12.84,0.145
100291,2021-12-12T13:18:45,58.78132531,-93.77736254,4.436,12.84,0.282
100292,2021-12-12T13:18:51,58.78133864,-93.77736754,2.535,12.84,0.156
100293,2021-12-12T13:18:56,58.78135198,-93.77736254,0.2,12.84,0.0
100294,2021-12-12T13:19:01,58.78136699,-93.77735421,2.318,12.84,0.141
100295,2021-12-12T13:19:06,58.78138366,-93.7773442,0.2,12.84,0.0
100296,2021-12-12T13:19:11,58.78139866,-93.77733253,0.2,12.84,0.0
100297,2021-12-12T13:19:20,58.781417,-93.7773192,0.472,12.84,0.018
100298,2021-12-12T13:19:35,58.78144201,-93.77729586,4.001,12.84,0.253
100299,2021-12-12T13:19:43,58.78145368,-93.77727418,3.35,12.84,0.21
100300,2021-12-12T13:19:48,58.78146201,-93.77724417,0.309,12.84,0.007
100301,2021-12-12T13:19:55,58.78146701,-93.77720583,0.2,12.84,0.0
100302,2021-12-12T13:20:00,58.78146701,-93.77717916,2.046,12.84,0.123
100303,2021-12-12T13:20:12,58.78145701,-93.77714581,1.503,12.84,0.087
100304,2021-12-12T13:20:22,58.78144534,-93.77712081,0.2,12.84,0.0
100305,2021-12-12T13:20:29,58.781432,-93.77709747,0.2,12.83,0.0
100306,2021-12-12T13:20:33,58.78141867,-93.7770858,1.177,12.84,0.065
100307,2021-12-12T13:20:38,58.78140366,-93.77708413,1.015,12.83,0.054
100308,2021-12-12T13:20:48,58.78138866,-93.7770858,0.689,12.83,0.033
100309,2021-12-12T13:20:56,58.78137199,-93.77710247,1.069,12.83,0.058
100310,2021-12-12T13:21:04,58.78136365,-93.77711581,0.309,12.83,0.007
100311,2021-12-12T13:21:09,58.78135365,-93.77713748,0.2,12.83,0.0
100312,2021-12-12T13:21:17,58.78134365,-93.77715748,0.2,12.84,0.0
100313,2021-12-12T13:21:49,58.78133031,-93.77716915,0.2,12.83,0.0
100314,2021-12-12T13:21:55,58.78132531,-93.77719249,0.363,12.83,0.011
100315,2021-12-12T13:22:00,58.78131197,-93.77721083,0.743,12.83,0.036
100316,2021-12-12T13:22:07,58.78130197,-93.7772275,0.634,12.83,0.029
100317,2021-12-12T13:22:15,58.7812903,-93.77723917,0.363,12.83,0.011
100318,2021-12-12T13:22:30,58.78127363,-93.77725751,0.2,12.83,0.0
100319,2021-12-12T13:22:36,58.78126029,-93.77726918,0.2,12.83,0.0
100320,2021-12-12T13:22:41,58.78125029,-93.77727418,0.2,12.83,0.0
100321,2021-12-12T13:23:11,58.78124195,-93.77727585,0.2,12.83,0.0
100322,2021-12-12T13:23:41,58.78122695,-93.77727918,0.417,12.82,0.014
100323,2021-12-12T13:23:47,58.78121194,-93.77728252,0.2,12.82,0.0
100324,2021-12-12T13:23:52,58.78119861,-93.77728585,0.2,12.82,0.0
100325,2021-12-12T13:23:57,58.7811836,-93.77728752,1.829,12.82,0.109
100326,2021-12-12T13:24:06,58.78116693,-93.77729085,0.906,12.82,0.047
100327,2021-12-12T13:24:12,58.78115359,-93.77729252,0.2,12.82,0.0
100328,2021-12-12T13:24:17,58.78114026,-93.77729252,0.2,12.82,0.0
100329,2021-12-12T13:24:22,58.78112359,-93.77730086,0.2,12.82,0.0
100330,2021-12-12T13:24:28,58.78110858,-93.77730086,1.449,12.82,0.083
100331,2021-12-12T13:24:33,58.78109191,-93.77730419,0.2,12.82,0.0
100332,2021-12-12T13:24:40,58.78107857,-93.77730919,1.286,12.82,0.072
100333,2021-12-12T13:24:45,58.7810619,-93.77731419,0.2,12.82,0.0
100334,2021-12-12T13:24:51,58.78104523,-93.77731419,0.634,12.82,0.029
100335,2021-12-12T13:24:57,58.78102689,-93.7773192,0.2,12.82,0.0
100336,2021-12-12T13:25:03,58.78101022,-93.77732253,1.177,12.82,0.065
100337,2021-12-12T13:25:11,58.78099355,-93.7773242,0.96,12.81,0.051
100338,2021-12-12T13:25:17,58.78097688,-93.77733087,0.2,12.81,0.0
100339,2021-12-12T13:25:25,58.78095854,-93.77732586,0.363,12.82,0.011
100340,2021-12-12T13:25:31,58.78094354,-93.7773292,0.2,12.82,0.0
100341,2021-12-12T13:25:42,58.78092686,-93.7773242,1.721,12.82,0.101
100342,2021-12-12T13:25:53,58.78091353,-93.77733087,0.2,12.81,0.0
100343,2021-12-12T13:25:59,58.78088852,-93.7773292,0.309,12.81,0.007
100344,2021-12-12T13:26:11,58.78086851,-93.77732753,9.7,12.81,0.634
100345,2021-12-12T13:26:36,58.78086018,-93.77732586,13.5,12.81,0.887
100346,2021-12-12T13:26:55,58.78084517,-93.7773342,18.12,12.81,1.195
100347,2021-12-12T13:28:49,58.78082183,-93.77734254,25.07,12.81,1.658
100348,2021-12-12T13:29:03,58.7808085,-93.77734587,27.24,12.8,1.803
100349,2021-12-12T13:29:18,58.78079016,-93.77734587,19.64,12.8,1.296